Temperature
15 16 17 18 18 18 19 19 19 19 18 18 17 16 15 15 14 14 14 14 14 13 13 13 13 12 12 12 12 12 12 11 11 11 11 12 12 12 13 13 13 13 13
15 16 17 17 18 18 19 19 19 18 18 17 17 16 14 14 13 13 13 13 13 13 12 12 12 12 12 12 12 11 11 11 11 10 10 10 10 12 12 12 12 13 13
15 15 16 16 17 17 17 17 17 17 17 16 16 15 14 13 13 13 12 12 12 12 12 11 11 11 11 11 11 11 10 10 10 9 10 10 10 10 11 11 12 12 12
14 14 14 15 15 15 15 15 15 15 15 14 14 14 13 13 12 12 11 11 11 11 11 11 11 11 11 11 10 10 10 9 9 9 9 9 9 9 9 10 10 11 11
14 13 14 14 14 14 14 14 14 14 13 13 13 13 12 12 12 12 12 12 12 11 11 11 11 11 10 10 10 10 10 9 9 8 8 8 8 8 7 8 8 9 9
13 13 13 13 13 13 13 13 13 13 12 12 12 12 12 12 12 12 12 12 11 11 11 11 10 9 9 8 8 8 8 8 8 8 7 7 6 6 5 5 6 6 7
12 12 12 12 12 12 12 12 12 12 12 12 12 11 11 11 11 11 11 11 11 10 10 10 9 8 8 7 7 7 7 7 6 6 6 5 5 5 4 4 5 5 6
12 12 12 12 12 12 12 12 12 11 11 11 11 10 10 10 10 10 9 9 9 9 8 8 8 7 7 6 6 6 5 5 4 4 4 4 4 4 4 4 4 4 5
12 12 12 12 12 12 12 11 11 11 11 11 10 10 10 10 9 9 9 8 8 7 7 7 6 6 6 5 5 4 4 3 3 2 2 2 3 3 3 3 3 3 3
12 12 12 12 11 11 11 11 10 10 10 10 9 9 9 9 9 8 8 7 7 6 6 6 6 5 5 5 4 4 3 2 1 1 1 1 2 2 2 2 2 2 1
12 12 11 11 11 10 10 10 10 9 9 9 9 8 8 8 7 7 6 6 6 5 5 5 5 5 4 4 3 3 2 1 0 -0 -0 0 0 0 0 0 0 1 0
12 12 11 10 10 10 9 9 9 9 8 8 8 7 7 6 6 5 5 5 5 5 5 4 4 4 4 3 3 2 1 0 -1 -1 -2 -2 -1 -1 -1 -1 -1 -1 -1
12 11 10 10 9 9 9 8 8 8 7 7 7 6 5 5 5 5 4 4 4 4 4 4 3 3 3 3 2 1 1 -0 -2 -3 -3 -3 -2 -2 -2 -2 -2 -2 -2
11 10 9 9 8 8 8 8 7 7 6 6 5 4 4 4 4 4 4 4 3 3 3 3 2 2 2 2 1 0 -0 -1 -3 -3 -3 -3 -4 -4 -4 -3 -3 -3 -3
10 9 9 8 8 8 7 7 6 5 5 5 4 4 3 3 3 3 3 3 2 2 2 2 1 1 1 0 -1 -2 -2 -3 -4 -4 -4 -4 -4 -5 -5 -4 -4 -4 -4
10 9 8 8 7 7 6 5 5 4 4 3 3 3 3 3 2 2 2 2 2 1 1 1 0 -0 -1 -1 -2 -4 -4 -5 -5 -5 -5 -5 -5 -5 -5 -5 -5 -5 -5
10 9 8 7 6 6 5 4 4 4 3 3 3 2 2 2 2 1 1 1 1 0 -0 -1 -1 -2 -2 -3 -4 -5 -6 -6 -6 -6 -6 -6 -6 -6 -6 -6 -6 -6 -5
10 8 7 6 5 5 4 3 3 3 3 2 2 2 2 1 1 1 0 -0 -1 -1 -2 -2 -2 -3 -3 -4 -5 -6 -7 -7 -7 -6 -6 -6 -6 -6 -6 -6 -6 -6 -6
9 7 6 5 5 4 3 3 2 2 2 1 1 1 1 0 0 -0 -1 -2 -2 -2 -3 -3 -3 -4 -4 -5 -7 -7 -7 -7 -7 -7 -7 -7 -7 -7 -6 -6 -7 -7 -7
7 6 5 5 4 3 2 2 2 1 1 1 1 0 -0 -1 -1 -2 -2 -3 -3 -4 -4 -4 -4 -5 -6 -7 -8 -8 -8 -8 -7 -7 -7 -7 -7 -7 -7 -7 -7 -8 -8
5 5 4 4 3 2 2 1 1 0 0 0 -0 -0 -1 -2 -2 -3 -3 -4 -4 -4 -4 -4 -5 -6 -8 -9 -9 -8 -8 -8 -7 -7 -7 -7 -7 -7 -7 -8 -8 -9 -8
4 4 3 3 2 2 1 0 -0 -0 -0 -0 -1 -1 -2 -2 -3 -3 -4 -4 -5 -5 -5 -6 -7 -8 -9 -9 -9 -8 -8 -8 -8 -8 -8 -8 -8 -8 -8 -9 -9 -9 -9
4 3 2 2 1 0 -0 -1 -1 -1 -1 -1 -1 -2 -2 -3 -3 -4 -4 -5 -6 -7 -8 -9 -9 -9 -9 -9 -9 -9 -8 -8 -8 -8 -8 -8 -9 -9 -9 -10 -10 -10 -10
3 2 1 1 -0 -1 -1 -1 -1 -1 -1 -2 -2 -3 -3 -3 -4 -5 -5 -6 -7 -8 -9 -10 -9 -9 -10 -9 -9 -9 -9 -9 -9 -8 -8 -9 -10 -10 -10 -11 -11 -11 -11
2 1 0 -0 -0 -0 -1 -1 -2 -2 -2 -3 -3 -3 -4 -4 -5 -5 -7 -8 -9 -10 -10 -10 -10 -10 -10 -10 -9 -9 -9 -9 -9 -9 -9 -10 -10 -11 -11 -11 -11 -11 -11
1 0 -0 -1 -1 -1 -1 -2 -2 -3 -3 -4 -4 -4 -5 -5 -6 -7 -7 -9 -10 -10 -10 -10 -10 -10 -10 -10 -9 -9 -9 -9 -9 -10 -10 -11 -11 -11 -11 -12 -12 -12 -11
Wind_Speed
5 8 10 10 10 11 11 11 13 10 6 5 4 2 2 2 2 2 4 5 5 5 4 5 7 6 6 8 9 8 10 10 8 8 10 11 12 13 14 14 14 16 17
8 9 10 11 11 11 12 14 14 13 9 5 3 3 4 4 4 6 8 10 9 8 5 5 5 6 6 8 8 8 7 7 6 5 6 7 6 9 12 12 13 15 14
7 7 9 10 10 12 12 12 13 14 13 9 6 6 5 5 6 7 7 7 10 11 9 9 8 8 7 7 8 7 8 10 8 7 7 8 8 5 6 9 12 13 13
6 7 8 9 9 9 9 11 12 13 13 11 13 13 9 7 6 4 5 7 8 9 10 8 9 8 7 8 8 8 7 8 9 7 7 10 11 12 9 5 7 10 12
7 7 8 8 8 8 9 10 12 14 13 13 12 11 9 6 4 5 8 9 8 8 10 9 10 9 8 8 9 8 8 6 7 7 8 9 10 10 12 14 9 8 8
6 7 7 8 9 8 9 9 13 13 12 12 12 11 11 10 10 10 10 8 7 7 10 10 9 9 8 9 9 9 10 8 9 8 7 8 7 9 9 14 16 13 10
7 7 8 9 9 9 9 9 12 12 10 12 13 11 10 10 10 9 9 9 8 7 11 10 10 10 10 10 9 9 10 10 10 9 8 8 8 9 10 12 14 16 13
7 7 8 8 8 9 9 9 11 10 10 10 10 9 9 7 7 8 7 7 7 6 10 11 10 11 11 12 11 9 10 9 10 11 10 9 9 9 10 10 12 15 14
8 8 8 8 8 9 8 8 9 10 9 8 8 9 8 8 7 7 6 6 6 7 9 10 10 11 12 12 12 10 12 12 10 9 10 10 10 10 9 9 9 10 16
8 8 8 7 7 7 7 8 9 9 8 8 8 7 7 8 7 7 8 8 9 9 9 10 10 11 11 12 12 11 12 13 10 10 13 12 12 11 9 8 8 8 11
9 8 8 7 7 7 7 8 8 8 8 7 7 8 8 8 7 7 8 8 8 9 10 11 12 12 12 13 13 12 13 13 13 12 14 16 15 10 9 9 9 9 9
8 8 8 7 7 7 7 8 7 7 7 7 7 7 7 7 8 8 8 8 8 9 9 10 11 12 12 12 12 13 13 13 14 14 13 14 13 11 10 10 12 11 8
8 8 7 7 7 7 7 7 7 6 6 6 7 7 7 8 8 8 8 9 9 10 10 11 11 12 12 13 11 11 12 12 11 11 13 15 14 12 11 13 13 10 10
9 9 7 7 7 6 6 6 5 5 5 6 6 6 7 7 8 8 8 8 9 10 11 11 11 12 14 13 12 15 14 13 10 9 11 13 13 14 15 14 11 11 12
9 9 8 7 6 6 5 5 5 5 5 5 5 5 6 7 7 8 8 8 9 11 11 12 13 13 13 13 18 17 17 15 13 12 11 12 20 23 19 18 16 16 14
9 9 8 8 7 6 5 4 3 3 3 3 4 5 6 7 7 8 9 9 10 11 11 12 14 14 14 23 27 23 16 14 14 16 15 16 16 20 27 29 29 26 21
9 9 9 8 7 6 5 4 2 2 2 3 5 6 6 7 8 10 10 10 10 11 12 12 13 14 17 26 28 28 20 14 14 15 16 17 18 22 15 23 28 25 31
9 9 8 7 6 5 4 3 2 2 4 5 6 6 7 7 8 8 9 9 9 10 11 13 14 14 18 26 28 29 17 13 14 15 15 16 15 17 22 20 19 18 20
8 8 7 7 6 5 4 3 2 3 4 5 6 7 7 7 8 9 9 9 10 11 11 13 13 15 17 25 28 28 14 14 15 15 14 16 15 27 32 24 22 22 20
7 7 7 7 6 5 4 3 2 3 4 6 7 7 7 8 9 10 9 8 9 11 13 14 12 13 14 23 27 28 14 15 15 14 13 20 25 30 32 23 20 21 20
7 8 8 6 5 4 3 2 2 4 5 6 7 7 8 8 9 8 7 10 11 12 12 15 13 11 15 21 26 29 17 16 17 15 13 13 28 31 34 30 17 24 27
7 7 6 5 4 4 3 1 3 5 5 6 7 8 8 8 9 9 10 9 10 12 13 14 14 9 11 18 23 29 27 26 18 16 14 16 27 32 33 25 27 33 27
6 5 6 5 4 3 2 2 4 5 6 7 8 8 9 8 8 9 10 10 9 10 12 12 13 12 9 13 26 27 29 30 19 16 26 24 28 29 20 25 32 26 15
5 5 5 5 3 2 2 3 5 6 6 7 8 9 9 9 8 6 8 9 9 10 11 12 13 14 13 11 12 14 17 21 19 17 16 22 26 22 23 22 18 14 15
5 5 5 4 2 2 4 5 6 5 7 8 9 9 8 9 8 7 7 10 8 12 15 12 12 14 15 18 28 23 17 17 18 20 9 9 12 13 14 14 14 14 15
5 5 4 2 2 4 6 6 6 6 7 8 8 7 7 7 8 10 11 15 16 22 23 22 20 16 21 29 30 30 30 31 32 22 13 12 12 14 16 17 17 16 16
Wind_Direction
35 26 28 26 31 29 29 30 36 29 48 70 74 71 14 346 348 337 315 310 304 292 263 272 281 282 275 280 278 275 278 278 276 279 282 275 261 257 258 255 255 254 252
56 39 33 32 34 35 34 38 38 36 39 60 78 87 87 58 47 37 35 31 30 23 14 355 335 323 311 308 304 295 291 288 267 261 284 287 268 247 249 251 250 252 252
104 74 53 42 39 39 37 45 40 41 40 44 57 56 52 44 34 27 29 24 35 35 30 24 15 4 360 343 331 320 309 308 298 256 269 290 290 282 252 247 249 248 248
118 98 78 60 48 42 42 49 50 48 43 48 62 66 65 58 29 16 17 18 23 25 20 13 8 1 357 351 344 345 330 322 319 312 274 279 292 298 298 251 251 257 256
130 107 91 81 65 56 56 57 60 55 50 54 58 66 64 56 36 27 24 20 15 16 15 8 3 356 349 340 335 335 332 325 318 317 314 311 308 299 302 302 298 286 274
137 111 97 88 75 64 61 63 67 58 50 54 54 57 54 42 36 26 19 12 6 4 8 360 355 347 343 337 331 327 322 318 312 311 309 310 307 310 307 303 304 301 294
151 129 109 94 88 78 71 69 72 62 52 55 51 45 44 41 36 23 14 9 2 356 358 354 348 346 340 335 331 326 320 313 313 311 309 307 300 300 300 300 303 303 300
163 141 120 111 106 93 78 73 73 65 55 57 53 44 43 41 31 20 12 4 354 342 347 345 343 340 337 336 333 327 321 319 313 311 310 311 306 300 296 295 303 306 304
166 143 121 116 109 94 82 81 81 70 59 57 60 46 36 33 23 12 6 357 348 346 343 338 339 339 337 337 334 330 326 322 316 316 314 313 311 304 296 291 295 301 306
161 142 128 120 105 97 88 76 75 73 64 57 53 48 29 22 12 8 4 356 347 343 340 342 342 341 339 339 334 332 328 327 327 328 320 315 311 306 301 300 300 295 295
168 150 134 123 112 95 82 74 69 66 57 53 47 37 23 11 5 4 358 350 343 341 344 345 343 341 340 337 332 330 331 332 328 325 320 315 313 314 320 316 312 306 299
163 144 137 127 109 92 80 73 65 60 52 50 45 32 16 5 2 356 350 345 341 340 342 342 340 337 334 329 323 324 330 325 323 325 326 327 328 324 322 315 308 300 296
149 141 137 124 108 96 83 71 60 54 50 50 42 25 11 3 354 346 344 346 345 342 342 340 335 331 328 323 318 320 320 317 315 323 328 324 319 314 311 305 300 293 303
155 149 137 121 113 102 90 79 59 46 49 45 35 20 2 350 340 335 338 339 337 336 336 334 330 328 327 323 326 327 322 317 313 316 316 316 315 312 310 308 300 305 305
158 153 142 134 125 111 96 80 62 45 45 40 24 4 346 338 333 333 334 334 336 337 330 329 328 327 327 327 328 326 322 318 317 318 313 311 315 315 316 317 317 314 310
166 153 144 141 135 129 117 102 81 45 38 28 6 353 346 339 336 335 335 335 334 330 326 324 324 326 328 326 327 327 319 317 319 319 317 314 311 313 319 316 313 312 311
167 157 153 149 146 146 141 133 103 40 22 14 2 350 340 336 334 335 334 331 326 323 323 323 323 320 319 324 326 324 323 317 315 313 313 314 315 317 306 308 313 312 309
158 152 148 144 142 135 134 129 93 34 16 4 345 335 335 331 326 325 323 320 317 319 320 320 316 313 315 322 323 322 322 313 307 306 305 306 307 310 314 315 316 310 307
154 150 145 137 131 131 132 122 71 23 4 341 328 327 326 323 325 323 315 311 316 319 317 313 310 311 314 319 321 323 317 311 306 304 305 310 311 312 320 324 318 314 311
126 126 122 125 134 136 131 110 47 3 336 320 313 313 318 320 313 303 298 306 313 311 311 309 307 305 307 313 322 324 317 313 311 310 308 313 316 318 323 324 319 316 312
119 124 130 137 143 133 111 79 359 321 306 305 309 317 316 306 294 291 298 307 309 310 309 308 308 302 305 316 322 322 324 317 316 317 315 313 318 323 326 326 321 313 314
131 134 135 135 126 111 100 3 300 292 301 310 314 308 300 298 306 301 302 303 305 310 310 309 309 303 303 317 320 323 323 321 319 317 314 315 323 329 329 327 320 320 322
150 137 134 131 123 119 143 281 288 306 317 315 306 298 296 291 292 296 303 308 306 306 307 308 310 314 314 319 322 322 322 323 322 313 314 325 331 331 329 322 323 324 319
153 139 138 148 172 204 259 279 299 313 312 302 297 295 296 298 293 287 296 303 302 302 304 308 315 319 320 318 318 319 320 321 320 315 321 331 330 329 324 323 321 317 311
154 147 149 166 211 288 309 307 305 306 299 293 291 293 292 298 305 299 289 299 288 297 309 313 317 319 319 318 322 325 324 324 322 327 326 325 327 325 322 321 321 318 314
145 139 145 179 290 311 309 306 304 298 292 296 295 294 303 305 305 307 307 306 310 313 314 315 316 316 315 318 323 325 327 330 331 331 325 324 323 323 323 323 321 316 312
Height
1481 1481 1481 1480 1480 1479 1478 1476 1475 1475 1475 1476 1477 1478 1479 1480 1480 1480 1480 1479 1478 1477 1476 1474 1473 1471 1468 1466 1463 1459 1456 1453 1450 1446 1440 1438 1437 1434 1432 1429 1426 1423 1421
1481 1482 1481 1481 1481 1480 1478 1478 1477 1477 1477 1477 1477 1478 1478 1479 1479 1479 1478 1477 1476 1475 1473 1471 1469 1466 1464 1461 1458 1454 1450 1447 1446 1442 1436 1430 1426 1424 1423 1420 1418 1415 1413
1482 1482 1481 1481 1481 1480 1480 1480 1480 1479 1479 1478 1478 1478 1478 1479 1479 1478 1477 1476 1475 1473 1471 1469 1466 1464 1460 1457 1454 1451 1447 1443 1441 1439 1435 1428 1418 1415 1412 1411 1408 1405 1402
1483 1482 1481 1481 1482 1482 1483 1483 1482 1481 1481 1480 1479 1479 1479 1479 1479 1479 1478 1476 1474 1472 1470 1467 1464 1461 1458 1455 1452 1448 1444 1439 1435 1433 1430 1427 1420 1413 1402 1399 1399 1397 1394
1483 1483 1482 1482 1483 1484 1485 1485 1484 1483 1483 1482 1482 1481 1480 1480 1480 1479 1477 1475 1473 1470 1468 1465 1462 1459 1455 1452 1448 1444 1440 1436 1431 1427 1423 1418 1414 1409 1403 1393 1389 1387 1386
1484 1484 1483 1483 1484 1485 1486 1486 1485 1484 1485 1484 1483 1483 1482 1481 1479 1477 1475 1473 1470 1467 1464 1461 1458 1454 1450 1447 1443 1439 1435 1431 1427 1422 1417 1413 1408 1403 1398 1390 1382 1377 1374
1483 1483 1483 1484 1484 1485 1486 1486 1486 1485 1485 1485 1484 1483 1482 1480 1478 1475 1473 1470 1467 1464 1460 1457 1453 1449 1445 1441 1437 1433 1429 1425 1421 1416 1411 1407 1403 1398 1393 1387 1378 1371 1364
1482 1483 1483 1483 1484 1484 1485 1486 1486 1485 1485 1485 1484 1483 1482 1480 1477 1475 1471 1468 1464 1461 1457 1453 1449 1445 1440 1435 1431 1426 1422 1418 1414 1409 1405 1400 1395 1392 1387 1382 1375 1366 1357
1481 1482 1482 1483 1483 1484 1485 1485 1485 1485 1485 1484 1484 1483 1481 1478 1476 1473 1469 1466 1461 1457 1453 1449 1444 1440 1435 1431 1426 1421 1417 1413 1408 1403 1398 1393 1389 1385 1380 1376 1372 1366 1355
1479 1480 1481 1482 1483 1484 1485 1485 1485 1485 1484 1484 1483 1481 1479 1477 1474 1470 1466 1462 1458 1453 1449 1444 1440 1435 1431 1426 1421 1416 1412 1407 1403 1397 1392 1387 1383 1378 1374 1369 1365 1360 1354
1477 1478 1479 1480 1482 1483 1484 1484 1484 1484 1484 1483 1481 1480 1477 1474 1470 1466 1462 1458 1454 1449 1444 1440 1436 1432 1427 1422 1417 1412 1406 1401 1396 1391 1387 1382 1377 1372 1367 1362 1357 1352 1347
1476 1476 1478 1479 1481 1482 1482 1483 1483 1483 1482 1481 1479 1477 1474 1471 1467 1463 1458 1454 1450 1446 1441 1437 1432 1428 1423 1418 1412 1406 1400 1395 1389 1384 1380 1375 1370 1365 1360 1355 1349 1344 1339
1473 1474 1476 1478 1479 1480 1481 1481 1481 1481 1480 1478 1476 1473 1470 1467 1463 1459 1455 1451 1447 1443 1438 1433 1428 1423 1418 1413 1407 1401 1395 1389 1384 1379 1374 1368 1363 1357 1351 1346 1341 1335 1330
1470 1472 1474 1476 1478 1479 1479 1480 1480 1479 1478 1476 1473 1470 1467 1463 1460 1456 1452 1448 1443 1439 1434 1430 1425 1420 1414 1409 1402 1396 1390 1384 1379 1373 1367 1361 1356 1350 1344 1338 1333 1327 1320
1468 1470 1472 1474 1476 1477 1478 1478 1478 1477 1475 1473 1469 1466 1463 1460 1456 1452 1448 1444 1440 1436 1431 1426 1421 1415 1409 1403 1397 1391 1384 1379 1372 1366 1360 1355 1349 1344 1339 1334 1326 1320 1312
1466 1468 1470 1472 1474 1475 1476 1476 1475 1474 1471 1469 1466 1463 1460 1457 1453 1448 1444 1440 1436 1432 1427 1421 1415 1409 1404 1398 1392 1386 1379 1373 1366 1359 1352 1347 1341 1336 1332 1326 1321 1315 1308
1464 1466 1468 1470 1472 1473 1474 1473 1472 1470 1468 1465 1462 1459 1456 1453 1449 1445 1441 1436 1431 1427 1421 1416 1410 1404 1398 1392 1386 1380 1374 1367 1360 1353 1346 1340 1335 1330 1323 1317 1312 1306 1300
1462 1464 1466 1468 1470 1471 1471 1470 1469 1467 1465 1462 1459 1456 1452 1449 1445 1442 1437 1433 1427 1421 1416 1410 1404 1398 1392 1385 1379 1373 1367 1360 1353 1347 1341 1335 1328 1322 1317 1309 1302 1294 1287
1461 1463 1465 1467 1468 1468 1468 1467 1465 1463 1461 1459 1456 1452 1449 1445 1442 1438 1434 1428 1422 1415 1410 1404 1399 1392 1385 1379 1373 1368 1360 1353 1346 1341 1335 1330 1323 1316 1311 1303 1294 1285 1277
1459 1461 1464 1465 1466 1465 1464 1463 1461 1460 1458 1455 1452 1449 1446 1442 1439 1434 1429 1422 1416 1410 1404 1398 1393 1386 1379 1373 1368 1363 1356 1348 1341 1334 1329 1324 1318 1311 1304 1297 1288 1278 1269
1459 1461 1462 1463 1463 1462 1461 1460 1458 1456 1454 1452 1449 1446 1443 1439 1435 1429 1423 1417 1410 1404 1399 1392 1386 1380 1374 1368 1363 1358 1352 1345 1336 1329 1322 1316 1310 1304 1298 1291 1282 1273 1264
1458 1459 1459 1460 1460 1459 1458 1456 1455 1453 1451 1448 1446 1442 1439 1435 1429 1423 1417 1411 1406 1399 1392 1385 1378 1372 1368 1363 1358 1353 1347 1341 1333 1325 1318 1310 1304 1298 1291 1283 1274 1266 1257
1456 1457 1457 1457 1457 1456 1454 1453 1452 1449 1447 1444 1442 1438 1434 1429 1423 1417 1411 1406 1401 1394 1387 1380 1373 1367 1362 1358 1353 1347 1342 1335 1329 1321 1314 1306 1299 1292 1283 1276 1268 1259 1251
1454 1454 1454 1454 1453 1452 1451 1450 1448 1445 1443 1440 1437 1433 1427 1422 1417 1412 1407 1401 1395 1389 1382 1376 1370 1364 1358 1353 1347 1342 1336 1329 1323 1315 1308 1301 1294 1287 1279 1270 1261 1254 1247
1451 1451 1451 1450 1450 1449 1448 1446 1444 1442 1439 1436 1431 1426 1421 1416 1411 1406 1402 1396 1391 1386 1380 1373 1368 1361 1355 1350 1346 1340 1332 1326 1319 1311 1303 1295 1288 1280 1272 1264 1256 1249 1242
1447 1447 1447 1447 1447 1446 1445 1443 1441 1438 1434 1429 1424 1420 1415 1410 1405 1399 1393 1389 1386 1380 1375 1370 1365 1359 1354 1348 1342 1336 1329 1322 1315 1307 1299 1292 1285 1278 1269 1261 1252 1244 1237